YUNHAI 3 (54235 NORAD) Tracking and Keplerian Element Data

This shows tracking and keplerian element data for the satellite.

Feedback or suggestion? Click here.




ElementValue
Catalog54235
NameYUNHAI 3
Epoch Orbit121
Epoch Day324.57259504
Epoch Year2022
RAAN329.4735
Inclination98.8089
Eccentricity0.0029938
Argument of Perigee44.5266
Mean Anonmoly315.8573
Mean Motion14.12242526
Decay Rate2.724E-05
L11 54235U 22151A 22324.57259504 .00002724 00000+0 14984-2 0 9992
L22 54235 98.8089 329.4735 0029938 44.5266 315.8573 14.12242526 1219



Live tracking and technical data element details for YUNHAI 3 (NORAD 54235). YUNHAI 3 can be tracked NOW for your location showing map with azimuth and elevation plus other details from your city location.







IsCatalogInMostPopularTable: catalog: 54235, numindb: 4
Update: records affected: 1



GetName: 54235 YUNHAI 3

Hit Count: updated at: Sun, 04 Dec 2022 21:24:45 GMT